User: anonymous   Login
Location: Unspecified
(0.0000°N, 0.0000°E)
Time: 00:16:17
(UTC+00:00)
Language:

AISAT - Orbit

View from above orbital plane
View from above orbital plane
View from above satellite
View from above satellite

Ground track
Ground track

The orbit data is extracted from the following two-line orbital elements,

1 40054U 14034B   21027.35571865  .00000568  00000-0  85798-4 0  9997
2 40054  98.3010 175.9144 0013721 132.8639 227.3725 14.78266035354689
Epoch (UTC): 27 January 2021 08:32:14
Eccentricity: 0.0013721
inclination: 98.3010°
perigee height: 625 km
apogee height: 644 km
right ascension of ascending node: 175.9144°
argument of perigee: 132.8639°
revolutions per day: 14.78266035
mean anomaly at epoch: 227.3725°
orbit number at epoch: 35468

The dashed part of the orbit path shows where the satellite is in the earth's shadow,  

DLR